Flag for Belgium Weather past 2 weeks in Mons, Belgium

Now
39 °F

Partly cloudy.


Feels Like: 34 °F
Forecast: 36 / 46 °F
Wind: 8 mph from Northwest

Location: Chievres

Current Time: Jan 27, 2015 at 2:26:12 AM

Latest Report: Jan 27, 2015 at 1:25 AM


Visibility: N/A

Pressure: 30.24 "Hg

Humidity: 87%

Dew point: 36 °F

Location of MonsLocation

Historic Weather in Mons — Graph

°F

Mons temperature yesterday

Maximum temperature yesterday: 48 °F (at 2:25 PM)
Minimum temperature yesterday: 39 °F (at 12:25 AM)
Average temperature yesterday: 43 °F

Past Weeks' High & Low Weather Summary

 TemperatureHumidityPressure
High50 °F (Jan 12, 10:25 PM)100% (Jan 17, 12:25 AM)30.54 "Hg (Jan 17, 12:25 AM)
Low27 °F (Jan 22, 3:25 AM)70% (Jan 17, 1:25 PM)29.36 "Hg (Jan 15, 1:55 PM)
Average38 °F89%29.97 "Hg
* Reported Jan 12 12:25 AM — Jan 27 12:25 AM, Mons, Weather by CustomWeather, © 2014

Note: Actual official high and low records may vary slightly from our data, if they occured in-between our weather recording intervals... More about our weather records

Advertising

Mons weather history for previous 24 hours

 ConditionsComfort  
Time TempWeatherWind HumidityBarometerVisibility
12:25 AM
Jan 27
39 °FPassing clouds.5 mph87%30.21 "HgN/A
11:25 PM
Jan 26
39 °FPassing clouds.5 mph87%30.18 "HgN/A
10:25 PM39 °FPassing clouds.5 mph87%30.15 "HgN/A
9:25 PM41 °FPassing clouds.8 mph81%30.15 "HgN/A
8:25 PM43 °FPassing clouds.10 mph81%30.15 "HgN/A
7:25 PM43 °FPassing clouds.12 mph81%30.12 "HgN/A
6:25 PM45 °FPartly cloudy.14 mph93%30.09 "HgN/A
5:25 PM46 °FPartly sunny.9 mph87%30.09 "HgN/A
4:25 PM46 °FBroken clouds.9 mph93%30.12 "HgN/A
3:25 PM48 °FBroken clouds.9 mph94%30.15 "Hg1 mi
2:25 PM48 °FBroken clouds.10 mph94%30.18 "Hg1 mi
1:25 PM46 °FBroken clouds.9 mph100%30.18 "Hg1 mi
12:48 PM46 °FBroken clouds.9 mph100%30.21 "Hg2 mi
12:25 PM46 °FPartly sunny.8 mph100%30.21 "Hg2 mi
11:25 AM45 °FLow clouds.8 mph100%30.24 "Hg1 mi
10:25 AM45 °FLow clouds.9 mph93%30.24 "Hg2 mi
9:25 AM43 °FMostly cloudy.9 mph100%30.24 "Hg2 mi
8:25 AM43 °FMostly cloudy.10 mph100%30.24 "Hg1 mi
8:04 AM43 °FMostly cloudy.9 mph93%30.24 "Hg2 mi
7:25 AM43 °FMostly cloudy.9 mph93%30.24 "Hg2 mi
6:25 AM41 °FMostly cloudy.9 mph100%30.24 "Hg1 mi
5:25 AM41 °FMostly cloudy.10 mph100%30.30 "Hg2 mi
4:25 AM39 °FLow clouds.9 mph100%30.30 "Hg1 mi
3:25 AM39 °FMostly cloudy.9 mph100%30.33 "Hg1 mi
2:53 AM39 °FMostly cloudy.10 mph100%30.33 "Hg1 mi
2:25 AM39 °FMostly cloudy.10 mph100%30.33 "Hg1 mi
Weather by CustomWeather, © 2014

See weather overviewHow to use our weather pages